Flag for Switzerland Weather past 2 weeks in Adliswil, Zurich, Switzerland

Now
55 °F

Cool.


Feels Like: 54 °F
Forecast: 46 / 70 °F
Wind: 5 mph from Northeast

Location: Zurich Town / Ville.

Current Time: Sep 15, 2014 at 6:56:23 AM

Latest Report: Sep 15, 2014 at 6:00 AM


Visibility: N/A

Pressure: 30.00 "Hg

Humidity: 94%

Dew point: 53 °F

Location of AdliswilLocation

Historic Weather in Adliswil — Graph

°F

Adliswil temperature yesterday

Maximum temperature yesterday: 69 °F (at 5:00 PM)
Minimum temperature yesterday: 52 °F (at 6:00 AM)
Average temperature yesterday: 59 °F

Past Weeks' High & Low Weather Summary

 TemperatureHumidityPressure
High80 °F (Sep 8, 3:00 PM)98% (Sep 10, 4:00 AM)30.16 "Hg (Sep 10, 4:00 AM)
Low49 °F (Sep 2, 4:00 AM)47% (Sep 7, 4:00 PM)29.84 "Hg (Sep 6, 4:00 PM)
Average60 °F82%30.02 "Hg
* Reported Aug 31 5:00 AM — Sep 15 5:00 AM, Adliswil, Weather by CustomWeather, © 2014

Note: Actual official high and low records may vary slightly from our data, if they occured in-between our weather recording intervals... More about our weather records

Advertising

Adliswil weather history for previous 24 hours

 ConditionsComfort  
Time TempWeatherWind HumidityBarometerVisibility
5:00 AM
Sep 15
54 °FCool.3 mph95%30.01 "HgN/A
4:00 AM55 °FCool.7 mph94%30.00 "HgN/A
3:00 AM56 °FCool.6 mph93%30.00 "HgN/A
2:00 AM56 °FCool.7 mph93%30.00 "HgN/A
1:00 AM56 °FCool.3 mph91%30.00 "HgN/A
12:00 AM58 °FCool.9 mph86%30.00 "HgN/A
11:00 PM
Sep 14
60 °FCool.8 mph82%29.99 "HgN/A
10:00 PM61 °FCool.7 mph78%29.99 "HgN/A
9:00 PM61 °FCool.6 mph79%29.99 "HgN/A
8:00 PM61 °FCool.5 mph80%29.98 "HgN/A
7:00 PM65 °FMild.3 mph71%29.97 "HgN/A
6:00 PM65 °FMild.2 mph69%29.97 "HgN/A
5:00 PM69 °FMild.3 mph57%29.96 "HgN/A
4:00 PM68 °FMild.8 mph57%29.97 "HgN/A
3:00 PM68 °FMild.6 mph62%29.98 "HgN/A
2:00 PM67 °FMild.6 mph64%29.98 "HgN/A
1:00 PM66 °FMild.8 mph67%30.00 "HgN/A
12:00 PM62 °FCool.8 mph74%30.03 "HgN/A
11:00 AM59 °FCool.5 mph87%30.05 "HgN/A
10:00 AM58 °FCool.3 mph87%30.06 "HgN/A
9:00 AM55 °FCool.1 mph95%30.07 "HgN/A
8:00 AM54 °FCool.2 mph96%30.08 "HgN/A
7:00 AM53 °FCool.1 mph95%30.09 "HgN/A
6:00 AM52 °FCool.2 mph95%30.09 "HgN/A
Weather by CustomWeather, © 2014

See weather overviewHow to use our weather pages